Lake Charles Regional, LA

8:51 PM CDT on June 27, 2017 (GMT -0500)
Lake Charles Regional

Weather History for KLCH - October, 2011

Change the Weather History Date:

Sunday, October 23, 2011

  Actual Average Record
Temperature  
Mean Temperature 71 °F 68 °F  
Max Temperature 84 °F 79 °F 96 °F (1939)
Min Temperature 58 °F 57 °F 36 °F (1911)
Degree Days  
Heating Degree Days 0 2  
Month to date heating degree days 24 16  
Since 1 July heating degree days 24 17  
Cooling Degree Days 6 5  
Month to date cooling degree days 129 161  
Year to date cooling degree days 3135 2701  
Growing Degree Days 20 (Base 50)    
Moisture  
Dew Point 62 °F    
Average Humidity 76    
Maximum Humidity 100    
Minimum Humidity 51    
Precipitation  
Precipitation 0.07 in 0.17 in 2.00 in (1918)
Month to date precipitation 0.31 3.52  
Year to date precipitation 31.28 47.00  
Snow  
Snow 0.00 in 0.00 in 0.00 in ()
Month to date snowfall 0.0 0.0  
Since 1 July snowfall 0.0 0.0  
Since 1 September snowfall 0.0 0.0  
Snow Depth 0.00 in    
Sea Level Pressure  
Sea Level Pressure 30.06 in    
Wind  
Wind Speed 6 mph (SSW)    
Max Wind Speed 15 mph    
Max Gust Speed 22 mph    
Visibility 8 miles    
Events Rain    
T = Trace of Precipitation, MM = Missing Value Source: NWS Daily Summary

Daily Weather History Graph

Daily Weather History Graph

Search for Another Location

Airport or City:

Trip Planner

Search our weather history database for the weather conditions in past years. The results will help you decide how hot, cold, wet, or windy it might be!

Date:

Astronomy

Oct. 23, 2011 Rise Set
Actual Time 7:20 AM CDT 6:33 PM CDT
Civil Twilight 6:55 AM CDT 6:58 PM CDT
Nautical Twilight 6:27 AM CDT 7:26 PM CDT
Astronomical Twilight 5:59 AM CDT 7:54 PM CDT
Moon 3:42 AM CDT (10/23) 4:13 PM CDT (10/23)
Length of Visible Light 12h 02m
Length of Day
11h 13m
Waning Crescent, 14% of the Moon is Illuminated
Oct 23
Waning Crescent
Oct 26
New
Nov 2
First Quarter
Nov 10
Full
Nov 18
Last Quarter

Hourly Weather History & Observations

Time (CDT) Temp. Heat Index Dew Point Humidity Pressure Visibility Wind Dir Wind Speed Gust Speed Precip Events Conditions
12:53 AM 61.0 °F - 60.1 °F 97% 30.06 in 9.0 mi Calm Calm - N/A   Clear
1:53 AM 60.1 °F - 55.9 °F 86% 30.05 in 6.0 mi Calm Calm - N/A   Clear
2:53 AM 59.0 °F - 57.9 °F 96% 30.06 in 7.0 mi Calm Calm - N/A   Clear
3:53 AM 60.1 °F - 57.9 °F 93% 30.04 in 10.0 mi Calm Calm - N/A   Clear
4:53 AM 59.0 °F - 55.9 °F 90% 30.04 in 7.0 mi Calm Calm - N/A   Clear
5:53 AM 57.9 °F - 55.9 °F 93% 30.06 in 5.0 mi ENE 3.5 mph - N/A   Partly Cloudy
6:53 AM 59.0 °F - 57.0 °F 93% 30.09 in 6.0 mi ENE 4.6 mph - N/A   Scattered Clouds
7:53 AM 62.1 °F - 60.1 °F 93% 30.11 in 4.0 mi NNE 3.5 mph - N/A   Mostly Cloudy
8:53 AM 66.2 °F - 62.6 °F 88% 30.06 in 7.0 mi Calm Calm - N/A   Clear
9:53 AM 73.0 °F - 64.9 °F 76% 30.07 in 10.0 mi SSW 6.9 mph - N/A   Clear
10:53 AM 78.1 °F - 63.0 °F 60% 30.07 in 10.0 mi SSW 11.5 mph 17.3 mph N/A   Clear
11:53 AM 80.1 °F 81.2 °F 62.1 °F 54% 30.07 in 10.0 mi SW 12.7 mph - N/A   Mostly Cloudy
12:53 PM 82.4 °F 83.4 °F 62.6 °F 51% 30.03 in 10.0 mi SSW 12.7 mph 19.6 mph N/A   Partly Cloudy
1:53 PM 81.0 °F 81.9 °F 62.1 °F 52% 30.04 in 10.0 mi SSW 16.1 mph 20.7 mph N/A   Mostly Cloudy
2:53 PM 82.0 °F 83.0 °F 62.1 °F 51% 30.02 in 10.0 mi SSW 15.0 mph 21.9 mph N/A   Mostly Cloudy
3:53 PM 81.0 °F 82.2 °F 63.0 °F 54% 30.01 in 10.0 mi South 13.8 mph 21.9 mph N/A   Mostly Cloudy
4:53 PM 79.0 °F - 63.0 °F 58% 30.01 in 10.0 mi SSW 11.5 mph 18.4 mph N/A   Mostly Cloudy
5:53 PM 77.0 °F - 63.0 °F 62% 30.02 in 10.0 mi SSW 10.4 mph - N/A   Overcast
6:53 PM 75.0 °F - 64.0 °F 69% 30.04 in 10.0 mi South 5.8 mph - N/A   Overcast
7:53 PM 73.9 °F - 64.9 °F 73% 30.05 in 10.0 mi SSW 8.1 mph - N/A   Overcast
8:53 PM 73.9 °F - 66.0 °F 76% 30.08 in 10.0 mi SSW 4.6 mph - 0.00 in Rain Light Rain
9:53 PM 72.0 °F - 68.0 °F 87% 30.10 in 10.0 mi SSW 4.6 mph - 0.06 in Rain Light Rain
10:53 PM 70.0 °F - 68.0 °F 93% 30.12 in 8.0 mi SSW 3.5 mph - 0.01 in   Scattered Clouds
11:53 PM 68.0 °F - 66.0 °F 93% 30.12 in 2.5 mi Calm Calm - N/A   Scattered Clouds